Location: ?????
(38.3715°N, 23.0573°E)
Time: 08:25:09
(UTC+00:00)

Meteor 1-11 Rocket - Pass Details

Date: 03 August 2024
Orbit: 829 x 915 km, 81.2° (Epoch: 13 September)

Event Time Altitude Azimuth Distance (km) Brightness Sun altitude
Exits shadow 23:28:21 53° 52° (NE) 1,108 4.4 -33.0°
Drops below altitude 10° 23:33:11 10° 16° (NNE) 2,601 7.1 -32.8°
Sets 23:35:40 0° 13° (NNE) 3,539 8.0 -32.6°
